Regional Weather Roundup
Issued by NWS Little Rock, AR

Home | Current Version | Previous Version | Text Only | Print | Product List | Glossary Off
Versions: 1 2 3 4 5 6 7 8 9 10 11 12 13 14 15 16 17 18 19 20 21 22 23 24 25 26 27 28 29 30 31 32 33 34 35 36 37 38 39 40 41 42 43 44 45 46 47 48 49 50

000
ASUS44 KLZK 251905
RWRLZK

WEATHER ROUNDUP FOR ARKANSAS
NATIONAL WEATHER SERVICE LITTLE ROCK AR
200 PM CDT SAT APR 25 2015

NOTE: "FAIR" INDICATES FEW OR NO CLOUDS BELOW 12,000 FEET WITH NO
SIGNIFICANT WEATHER AND/OR OBSTRUCTIONS TO VISIBILITY.

ARZ001-003-010-029-252000-
NORTHWEST ARKANSAS

CITY           SKY/WX    TMP DP  RH WIND       PRES   REMARKS
FAYETTEVILLE   SUNNY     75  52  44 SW17G28   29.60F
FORT SMITH     SUNNY     80  52  37 W12       29.60S
HARRISON       SUNNY     77  50  38 SW15G23   29.57S
BENTONVILLE    SUNNY     75  52  43 W15G22    29.59F
ROGERS         SUNNY     75  53  46 W14G26    29.59S
SILOAM SPGS    SUNNY     77  54  44 W15G22    29.61S
HIGHFILL       SUNNY     76  52  43 W16G28    29.58S
SPRINGDALE     SUNNY     75  50  41 W14G25    29.60F
$$

ARZ004-005-016-252000-
NORTH CENTRAL ARKANSAS

CITY           SKY/WX    TMP DP  RH WIND       PRES   REMARKS
BATESVILLE     SUNNY     81  57  44 SW15G24   29.55S
FLIPPIN        SUNNY     81  52  36 W18G26    29.52S
MTN HOME       SUNNY     79  47  32 W10G24    29.53S
$$

ARZ040-041-252000-
WEST CENTRAL ARKANSAS

CITY           SKY/WX    TMP DP  RH WIND       PRES   REMARKS
MENA           SUNNY     81  55  41 W13G18    29.65S
MOUNT IDA      SUNNY     82  54  37 NW5       29.60F
$$

ARZ009-017-025-026-028-252000-
NORTHEAST ARKANSAS

CITY           SKY/WX    TMP DP  RH WIND       PRES   REMARKS
CORNING          N/A     79  63  57 SW21      29.51F
JONESBORO      MOSUNNY   74  64  71 SW21G31   29.54F
NEWPORT        MOSUNNY   79  65  62 SW16G22   29.56F
WALNUT RIDGE   MOSUNNY   81  59  47 SW21G26   29.52F
BLYTHEVILLE    MOSUNNY   77  64  64 SW22G32   29.55S
$$

ARZ022-023-033-042-044-252000-
CENTRAL ARKANSAS

CITY           SKY/WX    TMP DP  RH WIND       PRES   REMARKS
LITTLE ROCK    MOSUNNY   81  61  50 SW16G22   29.60F
N LITTLE ROCK  MOSUNNY   79  63  58 SW9G16    29.60F
JACKSONVILLE   SUNNY     81  60  48 SW15G22   29.59F
SEARCY         SUNNY     80  61  52 SW8       29.58F
HOT SPRINGS    SUNNY     82  56  40 W15G25    29.61F
RUSSELLVILLE   SUNNY     80  58  46 NW10      29.58F
CLINTON        FAIR      79  57  47 SW12G21   29.58F
$$

ARZ036-252000-
EAST ARKANSAS

CITY           SKY/WX    TMP DP  RH WIND       PRES   REMARKS
WEST MEMPHIS   PTSUNNY   75  66  73 SW10G17   29.60S
$$

ARZ050-053-066-070-073-252000-
SOUTHWEST ARKANSAS

CITY           SKY/WX    TMP DP  RH WIND       PRES   REMARKS
ARKADELPHIA    FAIR      82  64  54 SW15      29.63F
CAMDEN         SUNNY     84  63  48 NE7       29.63F HX  85
TEXARKANA      SUNNY     85  58  39 SW18      29.65F
EL DORADO      SUNNY     84  63  49 W14G21    29.66S HX  85
DE QUEEN       SUNNY     82  55  39 W15       29.62F
$$

ARZ056-057-069-252000-
SOUTHEAST ARKANSAS

CITY           SKY/WX    TMP DP  RH WIND       PRES   REMARKS
PINE BLUFF     PTSUNNY   79  65  62 W14G20    29.62F
STUTTGART      PTSUNNY   79  64  61 W17G24    29.62F
MONTICELLO     PTSUNNY   83  68  60 SW10G20   29.63F HX  86

$$





USA.gov is the U.S. government's official web portal to all federal, state and local government web resources and services.